Suffolk, VA

6:05 PM EDT on April 26, 2017 (GMT -0400)
Suffolk Municipal

Weather History for KSFQ - November, 2013

Change the Weather History Date:

Tuesday, November 26, 2013

  Actual Average Record
Temperature  
Mean Temperature 50 °F -  
Max Temperature 66 °F 60 °F 76 °F (1986)
Min Temperature 33 °F 38 °F 18 °F (1950)
Degree Days  
Heating Degree Days 16    
Moisture  
Dew Point 43 °F    
Average Humidity 83    
Maximum Humidity 100    
Minimum Humidity 60    
Precipitation  
Precipitation 0.66 in - - ()
Sea Level Pressure  
Sea Level Pressure 30.10 in    
Wind  
Wind Speed 4 mph (East)    
Max Wind Speed 22 mph    
Max Gust Speed 30 mph    
Visibility 9 miles    
Events Rain    
Averages and records for this station are not official NWS values.
T = Trace of Precipitation, MM = Missing Value Source: NWS Daily Summary

Daily Weather History Graph

Daily Weather History Graph

Search for Another Location

Airport or City:

Trip Planner

Search our weather history database for the weather conditions in past years. The results will help you decide how hot, cold, wet, or windy it might be!

Date:

Astronomy

Nov. 26, 2013 Rise Set
Actual Time 6:55 AM EST 4:51 PM EST
Civil Twilight 6:27 AM EST 5:19 PM EST
Nautical Twilight 5:55 AM EST 5:51 PM EST
Astronomical Twilight 5:24 AM EST 6:22 PM EST
Moon 12:07 AM EST 12:48 PM EST
Length of Visible Light 10h 52m
Length of Day
9h 56m
Last Quarter, 41% of the Moon is Illuminated
Nov 26
Last Quarter
Dec 2
New
Dec 9
First Quarter
Dec 17
Full
Dec 25
Last Quarter

Hourly Weather History & Observations

Time (EST) Temp. Windchill Dew Point Humidity Pressure Visibility Wind Dir Wind Speed Gust Speed Precip Events Conditions
12:15 AM 33.8 °F - 21.2 °F 60% 30.41 in 10.0 mi Calm Calm - N/A   Clear
12:35 AM 33.8 °F - 23.0 °F 65% 30.41 in 10.0 mi Calm Calm - N/A   Clear
12:55 AM 33.8 °F - 24.8 °F 70% 30.40 in 10.0 mi Calm Calm - N/A   Clear
1:15 AM 35.6 °F - 23.0 °F 60% 30.40 in 10.0 mi Calm Calm - N/A   Clear
1:35 AM 33.8 °F - 24.8 °F 70% 30.39 in 10.0 mi Calm Calm - N/A   Clear
1:55 AM 33.8 °F - 26.6 °F 75% 30.39 in 10.0 mi Calm Calm - N/A   Clear
2:15 AM 33.8 °F - 26.6 °F 75% 30.38 in 10.0 mi Calm Calm - N/A   Scattered Clouds
2:35 AM 33.8 °F - 26.6 °F 75% 30.38 in 10.0 mi Calm Calm - N/A   Clear
2:55 AM 33.8 °F - 26.6 °F 75% 30.37 in 10.0 mi Calm Calm - N/A   Clear
3:15 AM 35.6 °F - 28.4 °F 75% 30.35 in 10.0 mi Calm Calm - N/A   Clear
3:35 AM 35.6 °F - 28.4 °F 75% 30.35 in 10.0 mi Calm Calm - N/A   Clear
3:55 AM 35.6 °F - 28.4 °F 75% 30.34 in 10.0 mi Calm Calm - N/A   Clear
4:15 AM 35.6 °F - 28.4 °F 75% 30.33 in 10.0 mi Calm Calm - N/A   Mostly Cloudy
4:35 AM 35.6 °F - 28.4 °F 75% 30.32 in 10.0 mi Calm Calm - N/A   Mostly Cloudy
4:55 AM 37.4 °F 34.9 °F 30.2 °F 75% 30.32 in 10.0 mi ENE 3.5 mph - N/A   Mostly Cloudy
5:15 AM 37.4 °F 34.9 °F 28.4 °F 70% 30.32 in 10.0 mi NNE 3.5 mph - N/A   Overcast
5:35 AM 37.4 °F - 28.4 °F 70% 30.32 in 10.0 mi Calm Calm - N/A   Overcast
5:55 AM 37.4 °F - 30.2 °F 75% 30.32 in 10.0 mi Calm Calm - N/A   Overcast
6:15 AM 37.4 °F - 30.2 °F 75% 30.31 in 10.0 mi Calm Calm - N/A   Overcast
6:35 AM 37.4 °F 34.9 °F 30.2 °F 75% 30.30 in 10.0 mi ENE 3.5 mph - N/A   Overcast
6:55 AM 37.4 °F 34.9 °F 30.2 °F 75% 30.30 in 10.0 mi NE 3.5 mph - N/A   Overcast
7:15 AM 39.2 °F - 30.2 °F 70% 30.31 in 10.0 mi Calm Calm - N/A   Overcast
7:35 AM 39.2 °F 37.0 °F 30.2 °F 70% 30.30 in 10.0 mi ENE 3.5 mph - N/A   Overcast
7:55 AM 39.2 °F - 30.2 °F 70% 30.31 in 10.0 mi Calm Calm - N/A   Overcast
8:15 AM 41.0 °F 39.0 °F 32.0 °F 70% 30.30 in 10.0 mi NNE 3.5 mph - N/A   Overcast
8:35 AM 41.0 °F 39.0 °F 32.0 °F 70% 30.30 in 10.0 mi NNE 3.5 mph - N/A   Overcast
8:55 AM 42.8 °F 39.3 °F 33.8 °F 70% 30.28 in 10.0 mi ENE 5.8 mph - N/A   Overcast
9:15 AM 42.8 °F 39.3 °F 33.8 °F 70% 30.27 in 10.0 mi NE 5.8 mph - N/A   Overcast
9:35 AM 44.6 °F 40.7 °F 33.8 °F 66% 30.27 in 10.0 mi NE 6.9 mph - N/A   Mostly Cloudy
9:55 AM 44.6 °F 41.4 °F 35.6 °F 71% 30.25 in 10.0 mi ENE 5.8 mph - N/A   Scattered Clouds
10:15 AM 46.4 °F 43.5 °F 35.6 °F 66% 30.25 in 10.0 mi ENE 5.8 mph - N/A   Scattered Clouds
10:35 AM 46.4 °F 42.4 °F 37.4 °F 71% 30.23 in 10.0 mi ENE 8.1 mph - N/A   Scattered Clouds
10:55 AM 46.4 °F 44.3 °F 39.2 °F 76% 30.21 in 10.0 mi East 4.6 mph - N/A   Mostly Cloudy
11:15 AM 48.2 °F - 39.2 °F 71% 30.20 in 10.0 mi ENE 4.6 mph - N/A   Mostly Cloudy
11:35 AM 50.0 °F - 42.8 °F 76% 30.19 in 10.0 mi NE 4.6 mph - N/A   Scattered Clouds
11:55 AM 50.0 °F - 42.8 °F 76% 30.18 in 10.0 mi East 4.6 mph - N/A   Scattered Clouds
12:15 PM 51.8 °F - 42.8 °F 71% 30.16 in 10.0 mi NE 3.5 mph - N/A   Scattered Clouds
12:35 PM 51.8 °F - 44.6 °F 76% 30.15 in 10.0 mi Calm Calm - N/A   Light Drizzle
12:55 PM 51.8 °F - 46.4 °F 82% 30.12 in 10.0 mi NE 4.6 mph - N/A   Scattered Clouds
1:15 PM 53.6 °F - 46.4 °F 77% 30.11 in 10.0 mi NE 5.8 mph - N/A   Scattered Clouds
1:35 PM 53.6 °F - 46.4 °F 77% 30.11 in 10.0 mi NNE 4.6 mph - N/A   Mostly Cloudy
1:55 PM 53.6 °F - 48.2 °F 82% 30.10 in 10.0 mi North 3.5 mph - N/A Rain Rain
2:15 PM 51.8 °F - 48.2 °F 88% 30.09 in 7.0 mi NNE 5.8 mph - 0.02 in Rain Rain
2:35 PM 50.0 °F - 48.2 °F 94% 30.08 in 10.0 mi ENE 4.6 mph - 0.05 in Rain Rain
2:55 PM 50.0 °F - 48.2 °F 94% 30.06 in 7.0 mi NE 5.8 mph - 0.09 in Rain Rain
3:15 PM 50.0 °F - 50.0 °F 100% 30.05 in 7.0 mi NE 4.6 mph - 0.04 in Rain Rain
3:35 PM 50.0 °F - 50.0 °F 100% 30.04 in 5.0 mi NE 5.8 mph - 0.09 in Rain Rain
3:55 PM 51.8 °F - 51.8 °F 100% 30.02 in 4.0 mi ENE 4.6 mph - 0.13 in Rain Rain
4:15 PM 51.8 °F - 51.8 °F 100% 30.00 in 3.0 mi East 5.8 mph - 0.05 in Rain Rain
4:35 PM 53.6 °F - 53.6 °F 100% 29.98 in 7.0 mi East 5.8 mph - 0.09 in Rain Rain
4:55 PM 55.4 °F - 55.4 °F 100% 29.96 in 10.0 mi ESE 9.2 mph - 0.11 in Rain Light Rain
5:15 PM 57.2 °F - 57.2 °F 100% 29.95 in 10.0 mi ESE 8.1 mph - 0.03 in Rain Light Rain
5:35 PM 57.2 °F - 57.2 °F 100% 29.93 in 10.0 mi ESE 8.1 mph - 0.05 in Rain Rain
5:55 PM 57.2 °F - 57.2 °F 100% 29.91 in 10.0 mi ESE 9.2 mph - 0.08 in Rain Light Rain
6:15 PM 57.2 °F - 57.2 °F 100% 29.89 in 10.0 mi ESE 8.1 mph - 0.04 in Rain Light Rain
6:35 PM 59.0 °F - 59.0 °F 100% 29.87 in 7.0 mi ESE 10.4 mph 17.3 mph 0.05 in Rain Light Rain
6:55 PM 59.0 °F - 59.0 °F 100% 29.85 in 10.0 mi SE 8.1 mph 16.1 mph 0.07 in Rain Light Rain
7:15 PM 60.8 °F - 60.8 °F 100% 29.85 in 10.0 mi SE 8.1 mph 19.6 mph 0.02 in Rain Light Rain
7:35 PM 60.8 °F - 60.8 °F 100% 29.83 in 10.0 mi SE 10.4 mph 17.3 mph 0.06 in Rain Rain
7:55 PM 60.8 °F - 60.8 °F 100% 29.80 in 10.0 mi SE 10.4 mph 21.9 mph 0.08 in Rain Light Rain
8:15 PM 62.6 °F - 62.6 °F 100% 29.78 in 10.0 mi SE 16.1 mph 23.0 mph 0.01 in Rain Light Rain
8:35 PM 62.6 °F - 62.6 °F 100% 29.75 in 10.0 mi SE 18.4 mph 23.0 mph 0.02 in Rain Light Rain
8:55 PM 62.6 °F - 62.6 °F 100% 29.74 in 10.0 mi SE 12.7 mph 25.3 mph 0.02 in   Overcast
9:15 PM 62.6 °F - 62.6 °F 100% 29.72 in 7.0 mi SSE 15.0 mph 28.8 mph N/A Rain Rain
9:35 PM 64.4 °F - 62.6 °F 94% 29.70 in 7.0 mi SE 17.3 mph 24.2 mph 0.01 in Rain Rain
9:55 PM 64.4 °F - 62.6 °F 94% 29.68 in 10.0 mi SSE 19.6 mph 25.3 mph 0.02 in Rain Light Rain
10:15 PM 64.4 °F - 62.6 °F 94% 29.66 in 10.0 mi SSE 16.1 mph 25.3 mph N/A Rain Light Rain
10:35 PM 64.4 °F - 62.6 °F 94% 29.65 in 10.0 mi SSE 21.9 mph 29.9 mph 0.01 in Rain Light Rain
10:55 PM 64.4 °F - 64.4 °F 100% 29.64 in 7.0 mi SSE 20.7 mph 26.5 mph 0.02 in Rain Light Rain
11:15 PM 66.2 °F - 64.4 °F 94% 29.62 in 10.0 mi SSE 15.0 mph 24.2 mph 0.01 in Rain Light Rain
11:35 PM 66.2 °F - 64.4 °F 94% 29.62 in 7.0 mi SSE 15.0 mph 27.6 mph 0.02 in Rain Light Rain
11:55 PM 66.2 °F - 66.2 °F 100% 29.60 in 7.0 mi SSE 16.1 mph 25.3 mph 0.04 in Rain Heavy Rain